Home   Weather   London   Past weeks
Flag for Canada

Past Weather in London, Ontario, Canada — Yesterday and Last 2 Weeks

Now
45 °F

Partly cloudy.


Feels Like: 41 °F
Forecast: 63 / 46 °F
Wind: 7 mph from East

Location: London Weather Station

Current Time: May 22, 2019 at 5:20:01 am

Latest Report: May 22, 2019 at 4:00 am


Visibility: 15 mi

Pressure: 30.17 "Hg

Humidity: 81%

Dew Point: 39 °F

Location of LondonLocation

Past Weather in London — Graph

°F

London Temperature Yesterday

Maximum temperature yesterday: 64 °F (at 4:00 pm)
Minimum temperature yesterday: 37 °F (at 2:00 am)
Average temperature yesterday: 51 °F

High & Low Weather Summary for the Past Weeks

 TemperatureHumidityPressure
High79 °F (May 19, 1:00 pm)100% (May 7, 4:00 am)30.35 "Hg (May 7, 4:00 am)
Low36 °F (May 11, 4:36 am)32% (May 8, 7:00 pm)29.67 "Hg (May 17, 2:00 am)
Average51 °F77%29.95 "Hg
* Reported May 7 4:00 am — May 22 4:00 am, London. Weather by CustomWeather, © 2019

Note: Actual official high and low records may vary slightly from our data, if they occured in-between our weather recording intervals... More about our weather records

Advertising

London Weather History for the Previous 24 Hours

Scroll right to see more
 ConditionsComfort  
Time TempWeatherWind HumidityBarometerVisibility
4:00 am
Wed, May 22
45 °FPartly cloudy.7 mph81%30.17 "Hg15 mi
3:00 am45 °FPassing clouds.6 mph87%30.18 "Hg15 mi
2:00 am45 °FPassing clouds.7 mph87%30.19 "Hg15 mi
1:00 am46 °FPassing clouds.5 mph87%30.19 "Hg15 mi
12:00 am46 °FPassing clouds.7 mph87%30.19 "Hg15 mi
11:00 pm
Tue, May 21
50 °FPassing clouds.6 mph76%30.18 "Hg12 mi
10:00 pm52 °FPassing clouds.5 mph82%30.17 "Hg12 mi
9:00 pm55 °FPassing clouds.6 mph67%30.16 "Hg15 mi
8:00 pm59 °FPartly sunny.6 mph59%30.16 "Hg15 mi
7:00 pm59 °FPartly sunny.8 mph63%30.16 "Hg15 mi
6:00 pm63 °FScattered clouds.9 mph52%30.16 "Hg15 mi
5:00 pm64 °FPassing clouds.7 mph43%30.17 "Hg15 mi
4:00 pm64 °FPartly sunny.9 mph43%30.16 "Hg15 mi
3:00 pm63 °FBroken clouds.9 mph42%30.17 "Hg15 mi
2:00 pm63 °FPartly sunny.7 mph42%30.17 "Hg15 mi
1:00 pm63 °FScattered clouds.13 mph42%30.18 "Hg15 mi
12:00 pm59 °FScattered clouds.7 mph51%30.18 "Hg15 mi
11:00 am55 °FBroken clouds.9 mph59%30.19 "Hg15 mi
10:00 am54 °FScattered clouds.9 mph63%30.18 "Hg15 mi
9:00 am48 °FScattered clouds.8 mph76%30.18 "Hg15 mi
8:00 am45 °FScattered clouds.7 mph81%30.16 "Hg15 mi
7:00 am41 °FPassing clouds.5 mph87%30.16 "Hg15 mi
6:00 am39 °FSunny.7 mph93%30.15 "Hg15 mi
5:00 am37 °FPassing clouds.5 mph93%30.15 "Hg15 mi
Weather by CustomWeather, © 2019

See weather overview